Location: Unspecified
(0.0000°N, 0.0000°E)
Time: 22:30:10
(UTC+00:00)

COSMOS 2251 DEB - Visible Passes

Search period start: 29 April 2025 00:00
Search period end: 09 May 2025 00:00
Orbit: 699 x 745 km, 74.0° (Epoch: 28 April)

Date Brightness Start Highest point End Pass type
(mag) Time Alt. Az. Time Alt. Az. Time Alt. Az.
29 Apr ? 05:13:15 10° N 05:18:14 59° ENE 05:23:17 10° SSE visible
30 Apr ? 04:23:56 10° NNE 04:27:29 19° ENE 04:31:02 10° ESE visible
01 May ? 05:12:23 10° NNW 05:17:27 74° WSW 05:22:34 10° S visible
02 May ? 04:22:04 10° NNE 04:26:41 35° ENE 04:31:19 10° SE visible
03 May ? 03:34:24 10° ENE 03:35:53 11° ENE 03:37:22 10° E visible
03 May ? 05:11:56 10° NW 05:16:39 38° WSW 05:21:23 10° S visible
04 May ? 04:20:48 10° N 04:25:51 67° ENE 04:30:57 10° SSE visible
05 May ? 03:31:13 10° NNE 03:35:03 22° ENE 03:38:55 10° SE visible
05 May ? 05:12:04 10° NW 05:15:50 21° WSW 05:19:37 10° SSW visible
06 May ? 04:19:58 10° NNW 04:25:01 64° WSW 04:30:06 10° S visible
07 May ? 03:29:27 10° N 03:40:15 - SSE 03:32:08 27° NNE visible
07 May?05:19:54SSW05:19:54SSW05:11:03WNWvisible
